Regional Weather Roundup
Issued by NWS

Home | Current Version | Previous Version | Graphics & Text | Print | Product List | Glossary On
Versions: 1 2 3 4 5 6 7 8 9 10 11 12 13 14 15 16 17 18 19 20 21 22 23 24 25 26 27 28 29 30 31 32 33 34 35 36 37 38 39 40 41 42 43 44 45 46 47 48 49 50
067
ASUS45 KPSR 190710
RWRAZ

ARIZONA HOURLY REGIONAL WEATHER ROUNDUP
NATIONAL WEATHER SERVICE PHOENIX AZ
1200 AM MST THU APR 19 2018

NOTE: FAIR INDICATES FEW OR NO CLOUDS BELOW 12,000 FEET WITH NO
SIGNIFICANT WEATHER AND/OR OBSTRUCTIONS TO VISIBILITY.

AZZ001>003-036-190800-
NORTHWEST ARIZONA

CITY           SKY/WX    TMP DP  RH WIND       PRES   REMARKS
BULLHEAD CITY  MOCLDY    73   9   8 S9        29.82F
KINGMAN        PTCLDY    59  10  14 S15       29.93F
$$

AZZ004>008-015-016-018-190800-
NORTH CENTRAL ARIZONA

CITY           SKY/WX    TMP DP  RH WIND       PRES   REMARKS
GRAND CANYON   CLEAR     27  -2  28 CALM      30.08S
WILLIAMS       PTCLDY    41  -2  16 SE9       30.05S
PRESCOTT       CLEAR     50   5  16 VRB7      30.03F
FLAGSTAFF      CLEAR     30   4  33 CALM      30.09F
PAYSON         CLEAR     46   1  15 CALM      30.06S
PAGE           CLEAR     49   9  19 SW3       29.98F
$$

AZZ009>014-017-190800-
NORTHEAST ARIZONA

CITY           SKY/WX    TMP DP  RH WIND       PRES   REMARKS
WINSLOW        CLEAR     48   3  15 S9        30.04S
SHOW LOW       CLEAR     45  -4  13 S9        30.14S
$$

AZZ540-542>544-546-548-190800-
GREATER PHOENIX AREA

CITY           SKY/WX    TMP DP  RH WIND       PRES   REMARKS
PHOENIX        CLEAR     68  24  19 E5        29.88F
BUCKEYE        CLEAR     59  14  17 S7        29.90S
LUKE AFB       CLEAR     59  23  25 N6        29.88F
DEER VALLEY    CLEAR     61  10  13 CALM      29.90F
SCOTTSDALE     CLEAR     64  20  18 NE5       29.92F
MESA-GATEWAY   CLEAR     59  10  14 E8        29.92S
$$

AZZ539-553-190800-
SOUTHWEST MARICOPA COUNTY AND PINAL COUNTY

CITY           SKY/WX    TMP DP  RH WIND       PRES   REMARKS
CASA GRANDE    CLEAR     62  15  16 CALM      29.92F
GILA BEND      FAIR      63  14  15 SW6       29.89S
$$

AZZ503-504-507>509-190800-
SOUTHEAST ARIZONA

CITY           SKY/WX    TMP DP  RH WIND       PRES   REMARKS
TUCSON         CLEAR     62   8  12 S8        30.00S
DAVIS-MONTHAN  CLEAR     58  12  16 S8        29.98
NOGALES        CLEAR     56  12  17 E7        30.05F
SIERRA VISTA   PTCLDY    58   5  12 S5        30.09
DOUGLAS        PTCLDY    53   5  14 CALM      30.07F
SAFFORD        PTCLDY    61   3  10 W7        29.99R
$$

AZZ532-190800-
SOUTHWEST ARIZONA

CITY           SKY/WX    TMP DP  RH WIND       PRES   REMARKS
YUMA           CLEAR     63  27  25 SE8       29.87F
$$

CAZ041-043-047-048-061-525>527-560>570-190800-
SOUTHERN CALIFORNIA

CITY           SKY/WX    TMP DP  RH WIND       PRES   REMARKS
DOWNTOWN L.A.  MOCLDY    54  44  69 CALM      30.01R
L.A. AIRPORT   MOCLDY    56  45  66 W12       30.02R
SAN DIEGO      MOCLDY    59  50  72 NW8       30.06
BURBANK        CLEAR     53  47  79 SE9       29.99R
ONTARIO        PTCLDY    52  46  80 SW9       29.99F
RIVERSIDE      CLEAR     51  42  71 W5        30.00S
PALM SPRINGS   PTCLDY    65  34  31 NW16      29.88F
EL CENTRO NAS  CLEAR     66  28  24 W20       29.88R
IMPERIAL       CLEAR     62  31  31 CALM      29.87R
BLYTHE         CLEAR     69  25  19 VRB3      29.86F
NEEDLES        MOCLDY    74  15  10 SW10      29.84S
$$

NVZ020-UTZ003-190800-
SOUTHERN NEVADA-UTAH

CITY           SKY/WX    TMP DP  RH WIND       PRES   REMARKS
LAS VEGAS      CLOUDY    68  10  10 S6        29.82F
SALT LAKE CITY MOCLDY    46  31  55 S8        29.94F
$$

NMZ009-TXZ055-190800-
NEW MEXICO-WEST TEXAS

CITY           SKY/WX    TMP DP  RH WIND       PRES   REMARKS
ALBUQUERQUE    CLEAR     55  11  17 E25       30.15R
EL PASO        PTCLDY    63  11  13 E6        30.12R
$$


........................KEY........................
SKY/WX - SKY CONDITION/WEATHER
TMP    - TEMPERATURE IN FAHRENHEIT
DP     - DEW POINT IN FAHRENHEIT
RH     - RELATIVE HUMIDITY IN PERCENT
WIND   - DIRECTION AND SPEED IN MILES PER HOUR (MPH)
VRB    - VARIABLE WIND DIRECTION
PRES   - MEAN SEA LEVEL PRESSURE IN INCHES OF MERCURY
         F - FALLING PRESSURE   R - RISING PRESSURE
         S - STEADY PRESSURE
VSB    - VISIBILITY IN MILES
HX     - HEAT INDEX IN FAHRENHEIT
WCI    - WIND CHILL INDEX IN FAHRENHEIT
TC     - TEMPERATURE IN CELSIUS WHICH IS ALSO KNOWN AS
         TEMPERATURE IN CENTIGRADE
AFB    - AIR FORCE BASE
         LUKE AFB IS LUKE AIR FORCE BASE
         DAVIS-MONTHAN IS DAVIS-MONTHAN AIR FORCE BASE
NAS    - NAVAL AIR STATION
         EL CENTRO NAS IS EL CENTRO NAVAL AIR STATION
N/A    - NOT AVAILABLE





USA.gov is the U.S. government's official web portal to all federal, state and local government web resources and services.